Time,TemperatureF,DewpointF,PressureIn,WindDirection,WindDirectionDegrees,WindSpeedMPH,WindSpeedGustMPH,Humidity,HourlyPrecipIn,Conditions,Clouds,dailyrainin,SoftwareType,DateUTC
2013-06-19 00:01:00,55.6,53.0,30.00,ESE,123,0.0,0.0,91,0.00,,SKC,0.00,VWS V14.01,2013-06-19 05:01:00,
2013-06-19 00:06:00,55.4,52.8,29.99,ESE,123,0.0,0.0,91,0.00,,SKC,0.00,VWS V14.01,2013-06-19 05:06:00,
2013-06-19 00:11:00,55.3,52.7,29.99,ESE,123,0.0,0.0,91,0.00,,SKC,0.00,VWS V14.01,2013-06-19 05:11:00,
2013-06-19 00:16:00,55.1,52.8,29.99,ESE,123,0.0,0.0,92,0.00,,SKC,0.00,VWS V14.01,2013-06-19 05:16:00,
2013-06-19 00:21:00,55.0,53.0,29.99,ESE,123,0.0,0.0,93,0.00,,SKC,0.00,VWS V14.01,2013-06-19 05:21:00,
2013-06-19 00:26:00,54.9,52.9,29.99,ESE,123,0.0,0.0,93,0.00,,SKC,0.00,VWS V14.01,2013-06-19 05:26:00,
2013-06-19 00:31:00,54.8,52.5,29.99,ESE,123,0.0,0.0,92,0.00,,SKC,0.00,VWS V14.01,2013-06-19 05:31:00,
2013-06-19 00:36:00,54.6,52.3,29.99,ESE,123,0.0,0.0,92,0.00,,SKC,0.00,VWS V14.01,2013-06-19 05:36:00,
2013-06-19 00:41:00,54.4,52.4,29.99,ESE,123,0.0,0.0,93,0.00,,SKC,0.00,VWS V14.01,2013-06-19 05:41:00,
2013-06-19 00:46:00,54.3,52.3,29.99,ESE,123,0.0,0.0,93,0.00,,SKC,0.00,VWS V14.01,2013-06-19 05:46:00,
2013-06-19 00:51:00,54.2,52.2,29.99,ESE,123,0.0,0.0,93,0.00,,SKC,0.00,VWS V14.01,2013-06-19 05:51:00,
2013-06-19 00:56:00,54.1,52.1,29.99,ESE,123,0.0,0.0,93,0.00,,SKC,0.00,VWS V14.01,2013-06-19 05:56:00,
2013-06-19 01:01:00,53.9,51.9,29.99,ESE,123,0.0,0.0,93,0.00,,SKC,0.00,VWS V14.01,2013-06-19 06:01:00,
2013-06-19 01:06:00,53.8,51.8,29.99,ESE,123,0.0,0.0,93,0.00,,SKC,0.00,VWS V14.01,2013-06-19 06:06:00,
2013-06-19 01:11:00,53.7,51.7,29.99,ESE,123,0.0,0.0,93,0.00,,SKC,0.00,VWS V14.01,2013-06-19 06:11:00,
2013-06-19 01:16:00,53.6,51.9,29.99,ESE,123,0.0,0.0,94,0.00,,SKC,0.00,VWS V14.01,2013-06-19 06:16:00,
2013-06-19 01:21:00,53.5,51.8,29.99,ESE,123,0.0,0.0,94,0.00,,SKC,0.00,VWS V14.01,2013-06-19 06:21:00,
2013-06-19 01:26:00,53.5,51.8,30.00,ESE,123,0.0,0.0,94,0.00,,SKC,0.00,VWS V14.01,2013-06-19 06:26:00,
2013-06-19 01:31:00,53.4,51.7,29.99,ESE,123,0.0,0.0,94,0.00,,SKC,0.00,VWS V14.01,2013-06-19 06:31:00,
2013-06-19 01:36:00,53.4,51.7,29.99,ESE,123,0.0,0.0,94,0.00,,SKC,0.00,VWS V14.01,2013-06-19 06:36:00,
2013-06-19 01:41:00,53.3,51.6,29.99,ESE,123,0.0,0.0,94,0.00,,SKC,0.00,VWS V14.01,2013-06-19 06:41:00,
2013-06-19 01:46:00,53.3,51.9,29.99,ESE,123,0.0,0.0,95,0.00,,SKC,0.00,VWS V14.01,2013-06-19 06:46:00,
2013-06-19 01:51:00,53.3,51.9,29.99,ESE,123,0.0,0.0,95,0.00,,SKC,0.00,VWS V14.01,2013-06-19 06:51:00,
2013-06-19 01:56:00,53.2,51.5,29.99,ESE,123,0.0,0.0,94,0.00,,SKC,0.00,VWS V14.01,2013-06-19 06:56:00,
2013-06-19 02:01:00,53.1,51.4,29.99,ESE,123,0.0,0.0,94,0.00,,SKC,0.00,VWS V14.01,2013-06-19 07:01:00,
2013-06-19 02:06:00,53.0,51.3,29.99,ESE,123,0.0,0.0,94,0.00,,SKC,0.00,VWS V14.01,2013-06-19 07:06:00,
2013-06-19 02:11:00,52.9,51.2,29.99,ESE,123,0.0,0.0,94,0.00,,SKC,0.00,VWS V14.01,2013-06-19 07:11:00,
2013-06-19 02:16:00,52.8,51.4,29.99,ESE,123,0.0,0.0,95,0.00,,SKC,0.00,VWS V14.01,2013-06-19 07:16:00,
2013-06-19 02:21:00,52.8,51.4,29.98,ESE,123,0.0,0.0,95,0.00,,SKC,0.00,VWS V14.01,2013-06-19 07:21:00,
2013-06-19 02:26:00,52.7,51.3,29.98,ESE,123,0.0,0.0,95,0.00,,SKC,0.00,VWS V14.01,2013-06-19 07:26:00,
2013-06-19 02:31:00,52.6,51.2,29.98,ESE,123,0.0,0.0,95,0.00,,SKC,0.00,VWS V14.01,2013-06-19 07:31:00,
2013-06-19 02:36:00,52.6,51.2,29.98,ESE,123,0.0,0.0,95,0.00,,SKC,0.00,VWS V14.01,2013-06-19 07:36:00,
2013-06-19 02:41:00,52.6,51.2,29.98,ESE,123,0.0,0.0,95,0.00,,SKC,0.00,VWS V14.01,2013-06-19 07:41:00,
2013-06-19 02:46:00,52.6,51.2,29.98,ESE,123,0.0,0.0,95,0.00,,SKC,0.00,VWS V14.01,2013-06-19 07:46:00,
2013-06-19 02:51:00,52.6,51.2,29.98,ESE,123,0.0,0.0,95,0.00,,SKC,0.00,VWS V14.01,2013-06-19 07:51:00,
2013-06-19 02:56:00,52.4,51.0,29.98,ESE,123,0.0,0.0,95,0.00,,SKC,0.00,VWS V14.01,2013-06-19 07:56:00,
2013-06-19 03:01:00,52.4,51.0,29.98,ESE,123,0.0,0.0,95,0.00,,SKC,0.00,VWS V14.01,2013-06-19 08:01:00,
2013-06-19 03:06:00,52.2,50.8,29.98,ESE,123,0.0,0.0,95,0.00,,SKC,0.00,VWS V14.01,2013-06-19 08:06:00,
2013-06-19 03:11:00,52.1,50.7,29.98,ESE,123,0.0,0.0,95,0.00,,SKC,0.00,VWS V14.01,2013-06-19 08:11:00,
2013-06-19 03:16:00,52.1,50.7,29.98,ESE,123,0.0,0.0,95,0.00,,SKC,0.00,VWS V14.01,2013-06-19 08:16:00,
2013-06-19 03:21:00,52.0,50.6,29.98,ESE,123,0.0,0.0,95,0.00,,SKC,0.00,VWS V14.01,2013-06-19 08:21:00,
2013-06-19 03:26:00,51.9,50.5,29.97,ESE,123,0.0,0.0,95,0.00,,SKC,0.00,VWS V14.01,2013-06-19 08:26:00,
2013-06-19 03:31:00,51.8,50.4,29.98,ESE,123,0.0,0.0,95,0.00,,SKC,0.00,VWS V14.01,2013-06-19 08:31:00,
2013-06-19 03:36:00,51.8,50.4,29.98,ESE,123,0.0,0.0,95,0.00,,SKC,0.00,VWS V14.01,2013-06-19 08:36:00,
2013-06-19 03:41:00,51.8,50.7,29.98,ESE,123,0.0,0.0,96,0.00,,SKC,0.00,VWS V14.01,2013-06-19 08:41:00,
2013-06-19 03:46:00,51.9,50.8,29.97,ESE,123,0.0,0.0,96,0.00,,SKC,0.00,VWS V14.01,2013-06-19 08:46:00,
2013-06-19 03:51:00,51.8,50.7,29.98,ESE,123,0.0,0.0,96,0.00,,SKC,0.00,VWS V14.01,2013-06-19 08:51:00,
2013-06-19 03:56:00,51.7,50.6,29.98,ESE,123,0.0,0.0,96,0.00,,SKC,0.00,VWS V14.01,2013-06-19 08:56:00,
2013-06-19 04:01:00,51.7,50.6,29.98,ESE,123,0.0,0.0,96,0.00,,SKC,0.00,VWS V14.01,2013-06-19 09:01:00,
2013-06-19 04:06:00,51.6,50.5,29.98,ESE,123,0.0,0.0,96,0.00,,SKC,0.00,VWS V14.01,2013-06-19 09:06:00,
2013-06-19 04:11:00,51.4,50.0,29.98,ESE,123,0.0,0.0,95,0.00,,SKC,0.00,VWS V14.01,2013-06-19 09:11:00,
2013-06-19 04:16:00,51.3,49.9,29.98,ESE,123,0.0,0.0,95,0.00,,SKC,0.00,VWS V14.01,2013-06-19 09:16:00,
2013-06-19 04:21:00,51.3,50.2,29.98,ESE,123,0.0,0.0,96,0.00,,SKC,0.00,VWS V14.01,2013-06-19 09:21:00,
2013-06-19 04:26:00,51.2,50.1,29.98,ESE,123,0.0,0.0,96,0.00,,SKC,0.00,VWS V14.01,2013-06-19 09:26:00,
2013-06-19 04:31:00,51.2,50.1,29.98,ESE,123,0.0,0.0,96,0.00,,SKC,0.00,VWS V14.01,2013-06-19 09:31:00,
2013-06-19 04:36:00,51.1,50.0,29.98,ESE,123,0.0,0.0,96,0.00,,SKC,0.00,VWS V14.01,2013-06-19 09:36:00,
2013-06-19 04:41:00,51.1,50.0,29.98,ESE,123,0.0,0.0,96,0.00,,SKC,0.00,VWS V14.01,2013-06-19 09:41:00,
2013-06-19 04:46:00,51.1,50.0,29.98,ESE,123,0.0,0.0,96,0.00,,SKC,0.00,VWS V14.01,2013-06-19 09:46:00,
2013-06-19 04:51:00,51.0,49.9,29.98,ESE,123,0.0,0.0,96,0.00,,SKC,0.00,VWS V14.01,2013-06-19 09:51:00,
2013-06-19 04:56:00,50.9,49.8,29.99,ESE,123,0.0,0.0,96,0.00,,SKC,0.00,VWS V14.01,2013-06-19 09:56:00,
2013-06-19 05:01:00,50.7,49.6,29.99,ESE,123,0.0,0.0,96,0.00,,SKC,0.00,VWS V14.01,2013-06-19 10:01:00,
2013-06-19 05:06:00,50.6,49.5,29.99,ESE,123,0.0,0.0,96,0.00,,SKC,0.00,VWS V14.01,2013-06-19 10:06:00,
2013-06-19 05:11:00,50.5,49.4,29.99,ESE,123,0.0,0.0,96,0.00,,SKC,0.00,VWS V14.01,2013-06-19 10:11:00,
2013-06-19 05:16:00,50.4,49.3,29.99,ESE,123,0.0,0.0,96,0.00,,SKC,0.00,VWS V14.01,2013-06-19 10:16:00,
2013-06-19 05:21:00,50.3,49.2,29.99,ESE,123,0.0,0.0,96,0.00,,SKC,0.00,VWS V14.01,2013-06-19 10:21:00,
2013-06-19 05:26:00,50.3,49.2,30.00,ESE,123,0.0,0.0,96,0.00,,SKC,0.00,VWS V14.01,2013-06-19 10:26:00,
2013-06-19 05:31:00,50.3,49.2,30.00,ESE,123,0.0,0.0,96,0.00,,SKC,0.00,VWS V14.01,2013-06-19 10:31:00,
2013-06-19 05:36:00,50.3,49.2,30.00,ESE,123,0.0,0.0,96,0.00,,SKC,0.00,VWS V14.01,2013-06-19 10:36:00,
2013-06-19 05:41:00,50.3,49.2,29.99,ESE,123,0.0,0.0,96,0.00,,SKC,0.00,VWS V14.01,2013-06-19 10:41:00,
2013-06-19 05:46:00,50.3,49.2,29.99,ESE,123,0.0,0.0,96,0.00,,SKC,0.00,VWS V14.01,2013-06-19 10:46:00,
2013-06-19 05:51:00,50.2,49.1,29.99,ESE,123,0.0,0.0,96,0.00,,SKC,0.00,VWS V14.01,2013-06-19 10:51:00,
2013-06-19 05:56:00,50.3,49.2,30.00,ESE,123,0.0,0.0,96,0.00,,SKC,0.00,VWS V14.01,2013-06-19 10:56:00,
2013-06-19 06:01:00,50.5,49.7,30.00,ESE,123,0.0,0.0,97,0.00,,SKC,0.00,VWS V14.01,2013-06-19 11:01:00,
2013-06-19 06:06:00,50.9,50.1,30.00,ESE,123,0.0,1.0,97,0.00,,SKC,0.00,VWS V14.01,2013-06-19 11:06:00,
2013-06-19 06:11:00,51.5,51.0,30.00,ESE,123,0.0,1.0,98,0.00,,SKC,0.00,VWS V14.01,2013-06-19 11:11:00,
2013-06-19 06:16:00,52.3,51.8,30.00,ESE,123,0.0,1.0,98,0.00,,SKC,0.00,VWS V14.01,2013-06-19 11:16:00,
2013-06-19 06:21:00,52.9,52.3,30.00,ESE,123,0.0,1.0,98,0.00,,SKC,0.00,VWS V14.01,2013-06-19 11:21:00,
2013-06-19 06:26:00,53.4,52.8,30.00,ESE,123,0.0,1.0,98,0.00,,SKC,0.00,VWS V14.01,2013-06-19 11:26:00,
2013-06-19 06:31:00,53.8,53.2,30.00,ESE,123,0.0,0.0,98,0.00,,SKC,0.00,VWS V14.01,2013-06-19 11:31:00,
2013-06-19 06:36:00,54.4,53.8,30.00,ESE,123,0.0,1.0,98,0.00,,SKC,0.00,VWS V14.01,2013-06-19 11:36:00,
2013-06-19 06:41:00,55.2,54.4,30.00,ESE,123,0.0,2.0,97,0.00,,SKC,0.00,VWS V14.01,2013-06-19 11:41:00,
2013-06-19 06:46:00,56.1,55.0,30.01,East,100,1.0,4.0,96,0.00,,SKC,0.00,VWS V14.01,2013-06-19 11:46:00,
2013-06-19 06:51:00,57.0,55.3,30.01,East,100,1.0,4.0,94,0.00,,SKC,0.00,VWS V14.01,2013-06-19 11:51:00,
2013-06-19 06:56:00,57.9,55.3,30.01,East,99,0.0,6.0,91,0.00,,SKC,0.00,VWS V14.01,2013-06-19 11:56:00,
2013-06-19 07:01:00,58.7,55.5,30.01,ESE,117,2.0,7.0,89,0.00,,SKC,0.00,VWS V14.01,2013-06-19 12:01:00,
2013-06-19 07:06:00,59.5,56.0,30.01,SE,128,1.0,7.0,88,0.00,,SKC,0.00,VWS V14.01,2013-06-19 12:06:00,
2013-06-19 07:11:00,60.3,56.1,30.01,ESE,119,1.0,7.0,86,0.00,,SKC,0.00,VWS V14.01,2013-06-19 12:11:00,
2013-06-19 07:16:00,61.0,56.5,30.01,ESE,116,0.0,7.0,85,0.00,,SKC,0.00,VWS V14.01,2013-06-19 12:16:00,
2013-06-19 07:21:00,61.6,56.7,30.01,ESE,119,4.0,7.0,84,0.00,,SKC,0.00,VWS V14.01,2013-06-19 12:21:00,
2013-06-19 07:26:00,62.1,56.9,30.00,SE,145,6.0,7.0,83,0.00,,SKC,0.00,VWS V14.01,2013-06-19 12:26:00,
2013-06-19 07:31:00,62.6,57.0,30.00,East,80,0.0,5.0,82,0.00,,SKC,0.00,VWS V14.01,2013-06-19 12:31:00,
2013-06-19 07:36:00,63.0,57.1,30.00,ESE,105,2.0,6.0,81,0.00,,SKC,0.00,VWS V14.01,2013-06-19 12:36:00,
2013-06-19 07:41:00,63.4,57.5,30.00,ESE,119,0.0,6.0,81,0.00,,SKC,0.00,VWS V14.01,2013-06-19 12:41:00,
2013-06-19 07:46:00,63.9,57.3,30.00,ESE,123,1.0,6.0,79,0.00,,SKC,0.00,VWS V14.01,2013-06-19 12:46:00,
2013-06-19 07:51:00,64.3,58.0,30.00,ESE,117,4.0,6.0,80,0.00,,SKC,0.00,VWS V14.01,2013-06-19 12:51:00,
2013-06-19 07:56:00,64.7,58.0,30.00,East,91,5.0,7.0,79,0.00,,SKC,0.00,VWS V14.01,2013-06-19 12:56:00,
2013-06-19 08:01:00,65.0,58.0,30.00,ESE,111,0.0,6.0,78,0.00,,SKC,0.00,VWS V14.01,2013-06-19 13:01:00,
2013-06-19 08:06:00,65.4,58.4,30.00,ESE,111,0.0,6.0,78,0.00,,SKC,0.00,VWS V14.01,2013-06-19 13:06:00,
2013-06-19 08:11:00,65.9,58.5,30.00,ESE,106,4.0,9.0,77,0.00,,SKC,0.00,VWS V14.01,2013-06-19 13:11:00,
2013-06-19 08:16:00,66.5,59.1,30.00,ESE,122,0.0,9.0,77,0.00,,SKC,0.00,VWS V14.01,2013-06-19 13:16:00,
2013-06-19 08:21:00,67.1,59.3,30.00,East,101,4.0,9.0,76,0.00,,SKC,0.00,VWS V14.01,2013-06-19 13:21:00,
2013-06-19 08:26:00,67.5,58.9,30.00,SE,132,1.0,9.0,74,0.00,,SKC,0.00,VWS V14.01,2013-06-19 13:26:00,
2013-06-19 08:31:00,67.9,59.3,30.00,ESE,108,4.0,7.0,74,0.00,,SKC,0.00,VWS V14.01,2013-06-19 13:31:00,
2013-06-19 08:36:00,68.5,59.5,30.00,SE,128,6.0,7.0,73,0.00,,SKC,0.00,VWS V14.01,2013-06-19 13:36:00,
2013-06-19 08:41:00,68.9,59.9,30.00,ESE,105,0.0,7.0,73,0.00,,SKC,0.00,VWS V14.01,2013-06-19 13:41:00,
2013-06-19 08:46:00,69.5,59.7,29.99,ESE,104,1.0,7.0,71,0.00,,SKC,0.00,VWS V14.01,2013-06-19 13:46:00,
2013-06-19 08:51:00,69.8,60.0,29.99,ENE,73,0.0,8.0,71,0.00,,SKC,0.00,VWS V14.01,2013-06-19 13:51:00,
2013-06-19 08:55:00,70.1,59.9,29.99,ESE,103,4.0,8.0,70,0.00,,SKC,0.00,VWS V14.01,2013-06-19 13:55:00,
2013-06-19 09:01:00,70.3,59.7,29.99,ESE,107,0.0,5.0,69,0.00,,SKC,0.00,VWS V14.01,2013-06-19 14:01:00,
2013-06-19 09:06:00,70.5,60.3,29.99,ESE,120,0.0,7.0,70,0.00,,SKC,0.00,VWS V14.01,2013-06-19 14:06:00,
2013-06-19 09:10:00,70.8,60.5,30.00,ESE,115,6.0,7.0,70,0.00,,SKC,0.00,VWS V14.01,2013-06-19 14:10:00,
2013-06-19 09:16:00,71.2,60.5,29.99,East,95,1.0,7.0,69,0.00,,SKC,0.00,VWS V14.01,2013-06-19 14:16:00,
2013-06-19 09:20:00,71.5,60.0,29.99,ESE,110,0.0,7.0,67,0.00,,SKC,0.00,VWS V14.01,2013-06-19 14:20:00,
2013-06-19 09:25:00,71.9,60.4,29.99,SW,216,0.0,7.0,67,0.00,,SKC,0.00,VWS V14.01,2013-06-19 14:25:00,
2013-06-19 09:30:00,72.2,61.1,29.99,ESE,104,5.0,8.0,68,0.00,,SKC,0.00,VWS V14.01,2013-06-19 14:30:00,
2013-06-19 09:35:00,72.2,61.1,29.99,ENE,78,3.0,8.0,68,0.00,,SKC,0.00,VWS V14.01,2013-06-19 14:35:00,
2013-06-19 09:40:00,72.7,61.1,29.99,East,98,0.0,8.0,67,0.00,,SKC,0.00,VWS V14.01,2013-06-19 14:40:00,
2013-06-19 09:45:00,73.1,61.1,29.99,SSE,167,0.0,8.0,66,0.00,,SKC,0.00,VWS V14.01,2013-06-19 14:45:00,
2013-06-19 09:50:00,73.3,61.3,29.99,ESE,117,0.0,8.0,66,0.00,,SKC,0.00,VWS V14.01,2013-06-19 14:50:00,
2013-06-19 09:56:00,73.3,60.4,29.99,ESE,113,6.0,8.0,64,0.00,,SKC,0.00,VWS V14.01,2013-06-19 14:56:00,
2013-06-19 10:00:00,73.5,61.0,29.99,SE,128,0.0,6.0,65,0.00,,SKC,0.00,VWS V14.01,2013-06-19 15:00:00,
2013-06-19 10:05:00,74.0,61.5,29.98,SE,134,0.0,7.0,65,0.00,,SKC,0.00,VWS V14.01,2013-06-19 15:05:00,
2013-06-19 10:11:00,74.6,61.6,29.99,ESE,117,5.0,8.0,64,0.00,,SKC,0.00,VWS V14.01,2013-06-19 15:11:00,
2013-06-19 10:16:00,74.5,61.1,29.98,ESE,117,4.0,9.0,63,0.00,,SKC,0.00,VWS V14.01,2013-06-19 15:16:00,
2013-06-19 10:21:00,74.7,63.0,29.98,ESE,119,0.0,9.0,67,0.00,,SKC,0.00,VWS V14.01,2013-06-19 15:21:00,
2013-06-19 10:25:00,75.1,61.7,29.98,ESE,117,0.0,9.0,63,0.00,,SKC,0.00,VWS V14.01,2013-06-19 15:25:00,
2013-06-19 10:30:00,75.4,61.0,29.98,ENE,67,12.0,12.0,61,0.00,,SKC,0.00,VWS V14.01,2013-06-19 15:30:00,
2013-06-19 10:35:00,75.4,61.0,29.98,South,184,0.0,13.0,61,0.00,,SKC,0.00,VWS V14.01,2013-06-19 15:35:00,
2013-06-19 10:40:00,75.5,61.1,29.98,ESE,109,4.0,13.0,61,0.00,,SKC,0.00,VWS V14.01,2013-06-19 15:40:00,
2013-06-19 10:45:00,75.6,61.2,29.98,East,86,2.0,13.0,61,0.00,,SKC,0.00,VWS V14.01,2013-06-19 15:45:00,
2013-06-19 10:50:00,75.7,60.8,29.98,ESE,102,6.0,13.0,60,0.00,,SKC,0.00,VWS V14.01,2013-06-19 15:50:00,
2013-06-19 10:55:00,75.7,60.8,29.98,East,88,3.0,13.0,60,0.00,,SKC,0.00,VWS V14.01,2013-06-19 15:55:00,
2013-06-19 11:00:00,75.7,62.7,29.98,SSE,166,0.0,6.0,64,0.00,,SKC,0.00,VWS V14.01,2013-06-19 16:00:00,
2013-06-19 11:05:00,76.1,61.7,29.97,ESE,114,2.0,8.0,61,0.00,,SKC,0.00,VWS V14.01,2013-06-19 16:05:00,
2013-06-19 11:10:00,76.5,61.6,29.97,SSE,147,0.0,8.0,60,0.00,,SKC,0.00,VWS V14.01,2013-06-19 16:10:00,
2013-06-19 11:15:00,76.7,61.8,29.97,SE,129,1.0,8.0,60,0.00,,SKC,0.00,VWS V14.01,2013-06-19 16:15:00,
2013-06-19 11:20:00,76.9,61.5,29.97,ESE,120,2.0,8.0,59,0.00,,SKC,0.00,VWS V14.01,2013-06-19 16:20:00,
2013-06-19 11:25:00,76.8,61.4,29.97,SE,125,0.0,8.0,59,0.00,,SKC,0.00,VWS V14.01,2013-06-19 16:25:00,
2013-06-19 11:30:00,77.0,61.6,29.97,ENE,76,3.0,5.0,59,0.00,,SKC,0.00,VWS V14.01,2013-06-19 16:30:00,
2013-06-19 11:35:00,77.3,62.3,29.97,East,91,0.0,9.0,60,0.00,,SKC,0.00,VWS V14.01,2013-06-19 16:35:00,
2013-06-19 11:40:00,77.5,62.1,29.96,ESE,113,0.0,9.0,59,0.00,,SKC,0.00,VWS V14.01,2013-06-19 16:40:00,
2013-06-19 11:45:00,77.6,61.7,29.97,East,90,4.0,9.0,58,0.00,,SKC,0.00,VWS V14.01,2013-06-19 16:45:00,
2013-06-19 11:50:00,77.5,62.1,29.97,ESE,117,2.0,9.0,59,0.00,,SKC,0.00,VWS V14.01,2013-06-19 16:50:00,
2013-06-19 11:55:00,77.5,62.1,29.96,ESE,121,6.0,9.0,59,0.00,,SKC,0.00,VWS V14.01,2013-06-19 16:55:00,
2013-06-19 12:00:00,77.8,62.3,29.96,ESE,109,1.0,7.0,59,0.00,,SKC,0.00,VWS V14.01,2013-06-19 17:00:00,
2013-06-19 12:05:00,77.9,62.0,29.96,East,84,6.0,8.0,58,0.00,,SKC,0.00,VWS V14.01,2013-06-19 17:05:00,
2013-06-19 12:10:00,78.1,62.1,29.96,ESE,108,1.0,8.0,58,0.00,,SKC,0.00,VWS V14.01,2013-06-19 17:10:00,
2013-06-19 12:15:00,78.4,61.9,29.96,East,86,4.0,8.0,57,0.00,,SKC,0.00,VWS V14.01,2013-06-19 17:15:00,
2013-06-19 12:20:00,78.5,61.5,29.96,ESE,123,7.0,12.0,56,0.00,,SKC,0.00,VWS V14.01,2013-06-19 17:20:00,
2013-06-19 12:25:00,78.2,62.7,29.96,East,94,0.0,12.0,59,0.00,,SKC,0.00,VWS V14.01,2013-06-19 17:25:00,
2013-06-19 12:30:00,78.3,62.3,29.95,ESE,104,2.0,5.0,58,0.00,,SKC,0.00,VWS V14.01,2013-06-19 17:30:00,
2013-06-19 12:35:00,78.5,62.5,29.95,SE,128,6.0,6.0,58,0.00,,SKC,0.00,VWS V14.01,2013-06-19 17:35:00,
2013-06-19 12:40:00,78.8,61.8,29.95,ESE,119,4.0,8.0,56,0.00,,SKC,0.00,VWS V14.01,2013-06-19 17:40:00,
2013-06-19 12:45:00,78.8,62.3,29.94,East,91,5.0,8.0,57,0.00,,SKC,0.00,VWS V14.01,2013-06-19 17:45:00,
2013-06-19 12:50:00,78.8,62.3,29.94,ESE,117,6.0,8.0,57,0.00,,SKC,0.00,VWS V14.01,2013-06-19 17:50:00,
2013-06-19 12:55:00,79.0,61.5,29.95,ESE,111,5.0,9.0,55,0.00,,SKC,0.00,VWS V14.01,2013-06-19 17:55:00,
2013-06-19 13:00:00,78.9,61.4,29.94,East,97,4.0,4.0,55,0.00,,SKC,0.00,VWS V14.01,2013-06-19 18:00:00,
2013-06-19 13:05:00,79.1,61.0,29.94,East,92,6.0,9.0,54,0.00,,SKC,0.00,VWS V14.01,2013-06-19 18:05:00,
2013-06-19 13:10:00,79.1,60.5,29.94,ESE,117,4.0,13.0,53,0.00,,SKC,0.00,VWS V14.01,2013-06-19 18:10:00,
2013-06-19 13:15:00,79.0,61.5,29.94,East,88,0.0,13.0,55,0.00,,SKC,0.00,VWS V14.01,2013-06-19 18:15:00,
2013-06-19 13:20:00,79.6,61.5,29.94,ESE,111,6.0,13.0,54,0.00,,SKC,0.00,VWS V14.01,2013-06-19 18:20:00,
2013-06-19 13:25:00,79.9,62.8,29.94,East,86,0.0,13.0,56,0.00,,SKC,0.00,VWS V14.01,2013-06-19 18:25:00,
2013-06-19 13:30:00,80.0,59.7,29.94,East,83,0.0,4.0,50,0.00,,SKC,0.00,VWS V14.01,2013-06-19 18:30:00,
2013-06-19 13:35:00,80.3,60.0,29.94,ESE,105,5.0,7.0,50,0.00,,SKC,0.00,VWS V14.01,2013-06-19 18:35:00,
2013-06-19 13:40:00,80.7,60.3,29.94,ESE,119,4.0,12.0,50,0.00,,SKC,0.00,VWS V14.01,2013-06-19 18:40:00,
2013-06-19 13:45:00,80.7,59.2,29.94,ESE,114,5.0,12.0,48,0.00,,SKC,0.00,VWS V14.01,2013-06-19 18:45:00,
2013-06-19 13:50:00,80.8,59.3,29.93,ESE,113,0.0,12.0,48,0.00,,SKC,0.00,VWS V14.01,2013-06-19 18:50:00,
2013-06-19 13:55:00,80.5,59.6,29.93,South,183,5.0,12.0,49,0.00,,SKC,0.00,VWS V14.01,2013-06-19 18:55:00,
2013-06-19 14:00:00,80.7,60.3,29.93,ESE,105,6.0,6.0,50,0.00,,SKC,0.00,VWS V14.01,2013-06-19 19:00:00,
2013-06-19 14:05:00,80.4,59.5,29.93,ESE,111,0.0,6.0,49,0.00,,SKC,0.00,VWS V14.01,2013-06-19 19:05:00,
2013-06-19 14:10:00,80.2,59.9,29.93,ESE,113,8.0,8.0,50,0.00,,SKC,0.00,VWS V14.01,2013-06-19 19:10:00,
2013-06-19 14:15:00,80.8,59.3,29.93,SE,126,4.0,8.0,48,0.00,,SKC,0.00,VWS V14.01,2013-06-19 19:15:00,
2013-06-19 14:20:00,81.2,59.7,29.93,ENE,72,1.0,8.0,48,0.00,,SKC,0.00,VWS V14.01,2013-06-19 19:20:00,
2013-06-19 14:25:00,81.1,60.2,29.93,ENE,78,4.0,9.0,49,0.00,,SKC,0.00,VWS V14.01,2013-06-19 19:25:00,
2013-06-19 14:30:00,80.6,60.8,29.93,ESE,110,5.0,6.0,51,0.00,,SKC,0.00,VWS V14.01,2013-06-19 19:30:00,
2013-06-19 14:35:00,80.6,60.3,29.92,East,84,5.0,12.0,50,0.00,,SKC,0.00,VWS V14.01,2013-06-19 19:35:00,
2013-06-19 14:40:00,81.2,60.8,29.92,ESE,113,4.0,12.0,50,0.00,,SKC,0.00,VWS V14.01,2013-06-19 19:40:00,
2013-06-19 14:45:00,81.4,61.0,29.92,SE,133,4.0,12.0,50,0.00,,SKC,0.00,VWS V14.01,2013-06-19 19:45:00,
2013-06-19 14:50:00,81.8,59.6,29.92,East,92,0.0,12.0,47,0.00,,SKC,0.00,VWS V14.01,2013-06-19 19:50:00,
2013-06-19 14:55:00,81.4,59.3,29.92,ESE,107,1.0,12.0,47,0.00,,SKC,0.00,VWS V14.01,2013-06-19 19:55:00,
2013-06-19 15:00:00,80.6,59.1,29.92,ESE,103,1.0,9.0,48,0.00,,SKC,0.00,VWS V14.01,2013-06-19 20:00:00,
2013-06-19 15:05:00,80.3,59.4,29.92,ESE,116,7.0,9.0,49,0.00,,SKC,0.00,VWS V14.01,2013-06-19 20:05:00,
2013-06-19 15:10:00,80.0,58.6,29.92,SE,144,5.0,9.0,48,0.00,,SKC,0.00,VWS V14.01,2013-06-19 20:10:00,
2013-06-19 15:15:00,80.4,60.1,29.92,ESE,122,7.0,12.0,50,0.00,,SKC,0.00,VWS V14.01,2013-06-19 20:15:00,
2013-06-19 15:20:00,80.8,58.1,29.92,East,83,0.0,12.0,46,0.00,,SKC,0.00,VWS V14.01,2013-06-19 20:20:00,
2013-06-19 15:25:00,81.1,59.6,29.92,ESE,122,0.0,12.0,48,0.00,,SKC,0.00,VWS V14.01,2013-06-19 20:25:00,
2013-06-19 15:30:00,81.7,60.1,29.92,East,100,0.0,4.0,48,0.00,,SKC,0.00,VWS V14.01,2013-06-19 20:30:00,
2013-06-19 15:35:00,82.2,59.4,29.92,East,94,0.0,9.0,46,0.00,,SKC,0.00,VWS V14.01,2013-06-19 20:35:00,
2013-06-19 15:40:00,82.2,60.0,29.92,East,100,1.0,9.0,47,0.00,,SKC,0.00,VWS V14.01,2013-06-19 20:40:00,
2013-06-19 15:45:00,82.3,60.1,29.92,ESE,116,1.0,9.0,47,0.00,,SKC,0.00,VWS V14.01,2013-06-19 20:45:00,
2013-06-19 15:50:00,81.9,60.9,29.92,ESE,114,0.0,9.0,49,0.00,,SKC,0.00,VWS V14.01,2013-06-19 20:50:00,
2013-06-19 15:55:00,81.7,61.3,29.91,ESE,112,1.0,9.0,50,0.00,,SKC,0.00,VWS V14.01,2013-06-19 20:55:00,
2013-06-19 16:00:00,81.7,60.7,29.91,ESE,103,7.0,8.0,49,0.00,,SKC,0.00,VWS V14.01,2013-06-19 21:00:00,
2013-06-19 16:05:00,81.7,61.3,29.91,ESE,123,9.0,12.0,50,0.00,,SKC,0.00,VWS V14.01,2013-06-19 21:05:00,
2013-06-19 16:10:00,81.7,61.3,29.91,SSW,202,0.0,12.0,50,0.00,,SKC,0.00,VWS V14.01,2013-06-19 21:10:00,
2013-06-19 16:15:00,81.7,61.8,29.91,East,80,8.0,12.0,51,0.00,,SKC,0.00,VWS V14.01,2013-06-19 21:15:00,
2013-06-19 16:20:00,81.6,60.6,29.90,SE,134,9.0,12.0,49,0.00,,SKC,0.00,VWS V14.01,2013-06-19 21:20:00,
2013-06-19 16:25:00,81.6,60.6,29.90,South,170,0.0,12.0,49,0.00,,SKC,0.00,VWS V14.01,2013-06-19 21:25:00,
2013-06-19 16:30:00,81.4,61.5,29.90,ESE,117,8.0,11.0,51,0.00,,SKC,0.00,VWS V14.01,2013-06-19 21:30:00,
2013-06-19 16:35:00,81.5,60.5,29.90,ESE,123,9.0,11.0,49,0.00,,SKC,0.00,VWS V14.01,2013-06-19 21:35:00,
2013-06-19 16:40:00,81.6,61.7,29.90,West,270,4.0,11.0,51,0.00,,SKC,0.00,VWS V14.01,2013-06-19 21:40:00,
2013-06-19 16:45:00,81.9,61.5,29.90,East,98,11.0,15.0,50,0.00,,SKC,0.00,VWS V14.01,2013-06-19 21:45:00,
2013-06-19 16:50:00,81.9,61.5,29.89,East,101,5.0,16.0,50,0.00,,SKC,0.00,VWS V14.01,2013-06-19 21:50:00,
2013-06-19 16:55:00,81.8,60.8,29.89,ESE,107,5.0,16.0,49,0.00,,SKC,0.00,VWS V14.01,2013-06-19 21:55:00,
2013-06-19 17:00:00,81.8,61.9,29.89,ESE,113,2.0,7.0,51,0.00,,SKC,0.00,VWS V14.01,2013-06-19 22:00:00,
2013-06-19 17:05:00,81.7,61.3,29.89,ESE,103,1.0,14.0,50,0.00,,SKC,0.00,VWS V14.01,2013-06-19 22:05:00,
2013-06-19 17:10:00,81.9,60.9,29.89,ESE,122,1.0,14.0,49,0.00,,SKC,0.00,VWS V14.01,2013-06-19 22:10:00,
2013-06-19 17:15:00,82.1,62.8,29.89,SE,136,6.0,14.0,52,0.00,,SKC,0.00,VWS V14.01,2013-06-19 22:15:00,
2013-06-19 17:20:00,82.1,61.6,29.89,East,94,5.0,14.0,50,0.00,,SKC,0.00,VWS V14.01,2013-06-19 22:20:00,
2013-06-19 17:25:00,82.1,61.1,29.89,ESE,103,4.0,14.0,49,0.00,,SKC,0.00,VWS V14.01,2013-06-19 22:25:00,
2013-06-19 17:30:00,82.0,59.8,29.89,ESE,113,0.0,7.0,47,0.00,,SKC,0.00,VWS V14.01,2013-06-19 22:30:00,
2013-06-19 17:35:00,81.9,60.9,29.89,SSE,148,0.0,7.0,49,0.00,,SKC,0.00,VWS V14.01,2013-06-19 22:35:00,
2013-06-19 17:40:00,82.0,61.5,29.89,SE,131,1.0,7.0,50,0.00,,SKC,0.00,VWS V14.01,2013-06-19 22:40:00,
2013-06-19 17:45:00,82.0,61.0,29.89,ESE,122,0.0,8.0,49,0.00,,SKC,0.00,VWS V14.01,2013-06-19 22:45:00,
2013-06-19 17:50:00,82.1,61.1,29.89,SE,126,5.0,8.0,49,0.00,,SKC,0.00,VWS V14.01,2013-06-19 22:50:00,
2013-06-19 17:55:00,82.3,61.2,29.89,ESE,116,5.0,8.0,49,0.00,,SKC,0.00,VWS V14.01,2013-06-19 22:55:00,
2013-06-19 18:00:00,82.3,60.7,29.88,ESE,121,5.0,8.0,48,0.00,,SKC,0.00,VWS V14.01,2013-06-19 23:00:00,
2013-06-19 18:05:00,82.2,61.2,29.89,ESE,115,0.0,12.0,49,0.00,,SKC,0.00,VWS V14.01,2013-06-19 23:05:00,
2013-06-19 18:10:00,81.9,60.9,29.88,East,88,6.0,12.0,49,0.00,,SKC,0.00,VWS V14.01,2013-06-19 23:10:00,
2013-06-19 18:15:00,81.6,61.7,29.89,ENE,76,5.0,12.0,51,0.00,,SKC,0.00,VWS V14.01,2013-06-19 23:15:00,
2013-06-19 18:20:00,81.7,61.8,29.88,ESE,117,2.0,12.0,51,0.00,,SKC,0.00,VWS V14.01,2013-06-19 23:20:00,
2013-06-19 18:25:00,81.6,61.7,29.88,ENE,72,6.0,12.0,51,0.00,,SKC,0.00,VWS V14.01,2013-06-19 23:25:00,
2013-06-19 18:30:00,81.4,62.1,29.88,East,100,0.0,7.0,52,0.00,,SKC,0.00,VWS V14.01,2013-06-19 23:30:00,
2013-06-19 18:35:00,81.2,61.9,29.88,SE,135,7.0,10.0,52,0.00,,SKC,0.00,VWS V14.01,2013-06-19 23:35:00,
2013-06-19 18:40:00,80.9,62.2,29.88,SE,129,4.0,10.0,53,0.00,,SKC,0.00,VWS V14.01,2013-06-19 23:40:00,
2013-06-19 18:45:00,80.7,62.0,29.88,ESE,104,4.0,11.0,53,0.00,,SKC,0.00,VWS V14.01,2013-06-19 23:45:00,
2013-06-19 18:50:00,80.5,61.8,29.88,ENE,63,5.0,11.0,53,0.00,,SKC,0.00,VWS V14.01,2013-06-19 23:50:00,
2013-06-19 18:55:00,80.4,62.2,29.88,ESE,106,6.0,11.0,54,0.00,,SKC,0.00,VWS V14.01,2013-06-19 23:55:00,
2013-06-19 19:00:00,80.3,62.2,29.88,East,88,5.0,8.0,54,0.00,,SKC,0.00,VWS V14.01,2013-06-20 00:00:00,
2013-06-19 19:05:00,80.3,62.2,29.88,ESE,121,4.0,12.0,54,0.00,,SKC,0.00,VWS V14.01,2013-06-20 00:05:00,
2013-06-19 19:10:00,80.1,62.5,29.88,East,96,6.0,12.0,55,0.00,,SKC,0.00,VWS V14.01,2013-06-20 00:10:00,
2013-06-19 19:15:00,79.8,62.2,29.88,ESE,119,8.0,12.0,55,0.00,,SKC,0.00,VWS V14.01,2013-06-20 00:15:00,
2013-06-19 19:20:00,79.7,62.1,29.88,East,86,6.0,12.0,55,0.00,,SKC,0.00,VWS V14.01,2013-06-20 00:20:00,
2013-06-19 19:25:00,79.6,62.5,29.88,East,80,1.0,12.0,56,0.00,,SKC,0.00,VWS V14.01,2013-06-20 00:25:00,
2013-06-19 19:30:00,79.6,62.5,29.88,ESE,104,9.0,9.0,56,0.00,,SKC,0.00,VWS V14.01,2013-06-20 00:30:00,
2013-06-19 19:35:00,79.4,62.3,29.88,ENE,78,2.0,9.0,56,0.00,,SKC,0.00,VWS V14.01,2013-06-20 00:35:00,
2013-06-19 19:40:00,79.3,62.8,29.88,ENE,68,10.0,10.0,57,0.00,,SKC,0.00,VWS V14.01,2013-06-20 00:40:00,
2013-06-19 19:45:00,79.1,62.1,29.88,ESE,115,6.0,10.0,56,0.00,,SKC,0.00,VWS V14.01,2013-06-20 00:45:00,
2013-06-19 19:50:00,78.9,62.4,29.88,East,92,6.0,10.0,57,0.00,,SKC,0.00,VWS V14.01,2013-06-20 00:50:00,
2013-06-19 19:55:00,78.7,62.7,29.88,ESE,122,0.0,10.0,58,0.00,,SKC,0.00,VWS V14.01,2013-06-20 00:55:00,
2013-06-19 20:00:00,78.5,62.5,29.88,ESE,111,1.0,5.0,58,0.00,,SKC,0.00,VWS V14.01,2013-06-20 01:00:00,
2013-06-19 20:05:00,78.3,62.3,29.88,ESE,103,2.0,5.0,58,0.00,,SKC,0.00,VWS V14.01,2013-06-20 01:05:00,
2013-06-19 20:10:00,78.0,62.5,29.88,ESE,111,4.0,5.0,59,0.00,,SKC,0.00,VWS V14.01,2013-06-20 01:10:00,
2013-06-19 20:16:00,77.6,62.2,29.88,East,84,5.0,5.0,59,0.00,,SKC,0.00,VWS V14.01,2013-06-20 01:16:00,
2013-06-19 20:21:00,77.3,62.8,29.88,ESE,105,2.0,5.0,61,0.00,,SKC,0.00,VWS V14.01,2013-06-20 01:21:00,
2013-06-19 20:26:00,76.9,62.4,29.88,ESE,105,1.0,5.0,61,0.00,,SKC,0.00,VWS V14.01,2013-06-20 01:26:00,
2013-06-19 20:31:00,76.6,62.6,29.88,ESE,105,0.0,4.0,62,0.00,,SKC,0.00,VWS V14.01,2013-06-20 01:31:00,
2013-06-19 20:36:00,76.3,62.8,29.88,ESE,105,0.0,4.0,63,0.00,,SKC,0.00,VWS V14.01,2013-06-20 01:36:00,
2013-06-19 20:41:00,76.0,62.5,29.88,ESE,105,0.0,4.0,63,0.00,,SKC,0.00,VWS V14.01,2013-06-20 01:41:00,
2013-06-19 20:46:00,75.7,62.7,29.88,ESE,105,0.0,4.0,64,0.00,,SKC,0.00,VWS V14.01,2013-06-20 01:46:00,
2013-06-19 20:51:00,75.4,62.4,29.88,ESE,105,0.0,4.0,64,0.00,,SKC,0.00,VWS V14.01,2013-06-20 01:51:00,
2013-06-19 20:56:00,75.1,62.5,29.88,ESE,105,0.0,4.0,65,0.00,,SKC,0.00,VWS V14.01,2013-06-20 01:56:00,
2013-06-19 21:00:00,74.8,62.3,29.88,ESE,105,0.0,0.0,65,0.00,,SKC,0.00,VWS V14.01,2013-06-20 02:00:00,
2013-06-19 21:06:00,74.6,62.5,29.88,ESE,105,0.0,1.0,66,0.00,,SKC,0.00,VWS V14.01,2013-06-20 02:06:00,
2013-06-19 21:10:00,74.5,62.4,29.88,ESE,105,0.0,1.0,66,0.00,,SKC,0.00,VWS V14.01,2013-06-20 02:10:00,
2013-06-19 21:16:00,74.2,62.5,29.88,ESE,105,0.0,1.0,67,0.00,,SKC,0.00,VWS V14.01,2013-06-20 02:16:00,
2013-06-19 21:20:00,73.9,62.3,29.89,ESE,105,0.0,4.0,67,0.00,,SKC,0.00,VWS V14.01,2013-06-20 02:20:00,
2013-06-19 21:25:00,73.8,62.2,29.89,ESE,105,0.0,4.0,67,0.00,,SKC,0.00,VWS V14.01,2013-06-20 02:25:00,
2013-06-19 21:30:00,73.5,61.9,29.89,ESE,107,0.0,4.0,67,0.00,,SKC,0.00,VWS V14.01,2013-06-20 02:30:00,
2013-06-19 21:35:00,73.5,61.9,29.89,East,98,0.0,5.0,67,0.00,,SKC,0.00,VWS V14.01,2013-06-20 02:35:00,
2013-06-19 21:40:00,73.4,62.2,29.89,ESE,105,1.0,5.0,68,0.00,,SKC,0.00,VWS V14.01,2013-06-20 02:40:00,
2013-06-19 21:45:00,73.2,62.0,29.89,ESE,108,2.0,5.0,68,0.00,,SKC,0.00,VWS V14.01,2013-06-20 02:45:00,
2013-06-19 21:50:00,73.1,61.9,29.89,ESE,121,1.0,5.0,68,0.00,,SKC,0.00,VWS V14.01,2013-06-20 02:50:00,
2013-06-19 21:55:00,73.0,61.8,29.89,ESE,120,2.0,5.0,68,0.00,,SKC,0.00,VWS V14.01,2013-06-20 02:55:00,
2013-06-19 22:00:00,73.0,61.8,29.90,ESE,106,0.0,4.0,68,0.00,,SKC,0.00,VWS V14.01,2013-06-20 03:00:00,
2013-06-19 22:05:00,72.9,61.7,29.90,ESE,120,0.0,4.0,68,0.00,,SKC,0.00,VWS V14.01,2013-06-20 03:05:00,
2013-06-19 22:10:00,72.7,61.5,29.89,East,88,0.0,5.0,68,0.00,,SKC,0.00,VWS V14.01,2013-06-20 03:10:00,
2013-06-19 22:15:00,72.6,61.4,29.90,ESE,111,0.0,5.0,68,0.00,,SKC,0.00,VWS V14.01,2013-06-20 03:15:00,
2013-06-19 22:20:00,72.5,61.3,29.90,ESE,111,1.0,5.0,68,0.00,,SKC,0.00,VWS V14.01,2013-06-20 03:20:00,
2013-06-19 22:25:00,72.3,61.6,29.90,SE,127,0.0,5.0,69,0.00,,SKC,0.00,VWS V14.01,2013-06-20 03:25:00,
2013-06-19 22:30:00,72.1,61.4,29.90,East,94,2.0,4.0,69,0.00,,SKC,0.00,VWS V14.01,2013-06-20 03:30:00,
2013-06-19 22:35:00,72.1,61.4,29.90,East,79,1.0,5.0,69,0.00,,SKC,0.00,VWS V14.01,2013-06-20 03:35:00,
2013-06-19 22:40:00,72.0,61.3,29.90,ESE,117,1.0,7.0,69,0.00,,SKC,0.00,VWS V14.01,2013-06-20 03:40:00,
2013-06-19 22:45:00,71.9,61.2,29.90,ESE,117,4.0,7.0,69,0.00,,SKC,0.00,VWS V14.01,2013-06-20 03:45:00,
2013-06-19 22:50:00,71.7,61.0,29.90,ESE,121,4.0,7.0,69,0.00,,SKC,0.00,VWS V14.01,2013-06-20 03:50:00,
2013-06-19 22:55:00,71.7,61.0,29.90,East,82,4.0,7.0,69,0.00,,SKC,0.00,VWS V14.01,2013-06-20 03:55:00,
2013-06-19 23:00:00,71.6,61.3,29.90,ESE,103,2.0,4.0,70,0.00,,SKC,0.00,VWS V14.01,2013-06-20 04:00:00,
2013-06-19 23:01:00,71.6,61.3,29.90,ESE,105,4.0,4.0,70,0.00,,SKC,0.00,VWS V14.01,2013-06-20 04:01:00,
2013-06-19 23:06:00,71.5,61.2,29.90,ESE,106,0.0,6.0,70,0.00,,SKC,0.00,VWS V14.01,2013-06-20 04:06:00,
2013-06-19 23:11:00,71.4,61.1,29.91,ESE,105,0.0,6.0,70,0.00,,SKC,0.00,VWS V14.01,2013-06-20 04:11:00,
2013-06-19 23:16:00,71.3,61.0,29.91,East,96,4.0,7.0,70,0.00,,SKC,0.00,VWS V14.01,2013-06-20 04:16:00,
2013-06-19 23:21:00,71.3,61.0,29.91,ESE,117,2.0,8.0,70,0.00,,SKC,0.00,VWS V14.01,2013-06-20 04:21:00,
2013-06-19 23:26:00,71.4,61.1,29.91,ESE,118,6.0,8.0,70,0.00,,SKC,0.00,VWS V14.01,2013-06-20 04:26:00,
2013-06-19 23:31:00,71.3,61.0,29.91,ESE,119,1.0,6.0,70,0.00,,SKC,0.00,VWS V14.01,2013-06-20 04:31:00,
2013-06-19 23:36:00,71.2,60.9,29.91,ESE,117,4.0,7.0,70,0.00,,SKC,0.00,VWS V14.01,2013-06-20 04:36:00,
2013-06-19 23:41:00,71.1,60.8,29.91,SE,134,2.0,7.0,70,0.00,,SKC,0.00,VWS V14.01,2013-06-20 04:41:00,
2013-06-19 23:46:00,71.0,60.7,29.91,ESE,106,1.0,7.0,70,0.00,,SKC,0.00,VWS V14.01,2013-06-20 04:46:00,
2013-06-19 23:51:00,70.9,61.0,29.91,ESE,119,5.0,7.0,71,0.00,,SKC,0.00,VWS V14.01,2013-06-20 04:51:00,
2013-06-19 23:56:00,70.8,60.9,29.91,ESE,103,6.0,7.0,71,0.00,,SKC,0.00,VWS V14.01,2013-06-20 04:56:00,